Trinidad, CO

3:26 AM MDT on August 22, 2017 (GMT -0600)
Stokes

Weather History for KTAD - November, 2012

Change the Weather History Date:

Saturday, November 24, 2012

  Actual Average Record
Temperature  
Mean Temperature 52 °F 37 °F  
Max Temperature 73 °F 52 °F 76 °F (1981)
Min Temperature 30 °F 22 °F -2 °F (1993)
Degree Days  
Heating Degree Days 13 28  
Month to date heating degree days 444 553  
Since 1 July heating degree days 912 1054  
Cooling Degree Days 0 0  
Month to date cooling degree days 0 0  
Year to date cooling degree days 1175 719  
Growing Degree Days 2 (Base 50)    
Moisture  
Dew Point 4 °F    
Average Humidity 25    
Maximum Humidity 44    
Minimum Humidity 5    
Precipitation  
Precipitation 0.00 in 0.02 in 0.62 in (1992)
Month to date precipitation T  
Sea Level Pressure  
Sea Level Pressure 30.01 in    
Wind  
Wind Speed 11 mph (West)    
Max Wind Speed 21 mph    
Max Gust Speed 25 mph    
Visibility 10 miles    
Events      
T = Trace of Precipitation, MM = Missing Value Source: NWS Daily Summary

Daily Weather History Graph

Daily Weather History Graph

Search for Another Location

Airport or City:

Trip Planner

Search our weather history database for the weather conditions in past years. The results will help you decide how hot, cold, wet, or windy it might be!

Date:

Astronomy

Nov. 24, 2012 Rise Set
Actual Time 6:46 AM MST 4:41 PM MST
Civil Twilight 6:17 AM MST 5:10 PM MST
Nautical Twilight 5:46 AM MST 5:42 PM MST
Astronomical Twilight 5:14 AM MST 6:13 PM MST
Moon 2:24 PM MST (11/24) 3:09 AM MST (11/24)
Length of Visible Light 10h 52m
Length of Day
9h 55m
Waxing Gibbous, 87% of the Moon is Illuminated
Nov 24
Waxing Gibbous
Nov 28
Full
Dec 6
Last Quarter
Dec 13
New
Dec 19
First Quarter

Hourly Weather History & Observations

Time (MST) Temp. Windchill Dew Point Humidity Pressure Visibility Wind Dir Wind Speed Gust Speed Precip Events Conditions
12:54 AM 36.0 °F 27.5 °F 15.1 °F 43% 30.22 in 10.0 mi West 12.7 mph 23.0 mph N/A   Clear
1:54 AM 35.1 °F 24.8 °F 14.0 °F 42% 30.19 in 10.0 mi WSW 17.3 mph - N/A   Clear
2:54 AM 36.0 °F 26.3 °F 12.9 °F 39% 30.16 in 10.0 mi WSW 16.1 mph - N/A   Clear
3:54 AM 36.0 °F 26.7 °F 12.0 °F 37% 30.14 in 10.0 mi West 15.0 mph - N/A   Clear
4:54 AM 33.1 °F 23.4 °F 10.0 °F 38% 30.16 in 10.0 mi West 13.8 mph - N/A   Clear
5:54 AM 35.1 °F 24.8 °F 8.1 °F 33% 30.17 in 10.0 mi WSW 17.3 mph - N/A   Clear
6:54 AM 36.0 °F 27.1 °F 7.0 °F 30% 30.17 in 10.0 mi WSW 13.8 mph - N/A   Clear
7:54 AM 39.0 °F 30.6 °F 7.0 °F 27% 30.14 in 10.0 mi WSW 15.0 mph - N/A   Clear
8:54 AM 50.0 °F - 5.0 °F 16% 30.09 in 10.0 mi West 13.8 mph - N/A   Clear
9:54 AM 57.9 °F - 7.0 °F 13% 30.05 in 10.0 mi WNW 6.9 mph - N/A   Clear
10:54 AM 64.0 °F - 3.9 °F 9% 29.99 in 10.0 mi Variable 3.5 mph - N/A   Clear
11:54 AM 66.9 °F - 1.9 °F 8% 29.95 in 10.0 mi Calm Calm - N/A   Clear
12:54 PM 70.0 °F - 1.0 °F 7% 29.91 in 10.0 mi Variable 3.5 mph - N/A   Clear
1:54 PM 72.0 °F - -0.9 °F 6% 29.87 in 10.0 mi NE 5.8 mph - N/A   Clear
2:54 PM 72.0 °F - -2.0 °F 5% 29.86 in 10.0 mi NW 11.5 mph - N/A   Clear
3:54 PM 68.0 °F - -2.0 °F 6% 29.87 in 10.0 mi North 10.4 mph - N/A   Clear
4:54 PM 61.0 °F - -4.0 °F 7% 29.91 in 10.0 mi West 4.6 mph - N/A   Clear
5:54 PM 51.1 °F - -2.9 °F 11% 29.95 in 10.0 mi Variable 5.8 mph - N/A   Clear
6:54 PM 45.0 °F 39.7 °F -2.0 °F 14% 29.96 in 10.0 mi West 10.4 mph - N/A   Clear
7:54 PM 48.0 °F - -0.9 °F 13% 29.93 in 10.0 mi WSW 16.1 mph - N/A   Clear
8:54 PM 43.0 °F 35.4 °F -0.9 °F 16% 29.91 in 10.0 mi West 16.1 mph - N/A   Clear
9:54 PM 41.0 °F 33.1 °F -2.0 °F 16% 29.90 in 10.0 mi West 15.0 mph - N/A   Clear
10:54 PM 39.9 °F 32.5 °F -2.0 °F 17% 29.89 in 10.0 mi West 12.7 mph - N/A   Clear
11:54 PM 39.0 °F 32.3 °F -0.9 °F 19% 29.87 in 10.0 mi West 10.4 mph - N/A   Clear